Temp
6 7 7 7 8 8 8 8 8 8 8 8 8 8 9 9 9 9 9 9 9 9 10 11 12 12 13 13 13 14 14 15 15 15 15 15 15 15 15 15 15 15 15 15 15 16 16 16 16 16 16 16 16 16 16 16 16 16 15 15 15 16 16 16 15 16 16 16 16
5 5 6 6 7 7 7 7 7 7 7 7 7 7 7 7 7 7 7 7 7 8 8 9 9 10 10 11 12 13 14 14 14 14 15 15 15 15 15 15 15 15 15 15 15 15 15 15 15 15 15 15 15 15 15 15 15 15 15 15 15 15 15 16 16 16 15 16 16
4 4 5 5 5 6 6 6 6 6 6 6 6 6 6 7 7 7 7 7 7 7 7 8 8 9 9 10 11 12 13 13 13 14 14 15 15 15 15 15 15 15 15 15 15 15 15 15 15 15 15 15 15 15 15 15 15 15 15 15 15 15 15 16 16 16 15 15 15
3 3 4 4 4 4 5 5 5 5 5 5 5 5 5 5 6 6 6 6 6 6 6 6 7 7 8 9 10 11 11 12 13 13 13 13 14 14 14 15 15 15 15 15 15 15 15 15 15 15 15 15 15 15 15 15 15 15 15 15 15 15 15 15 15 15 15 15 15
2 3 3 3 3 3 4 4 4 4 4 4 4 4 4 5 5 5 5 5 5 5 6 6 6 6 7 8 8 9 9 10 11 11 11 11 12 12 12 13 14 14 15 15 15 15 15 15 15 15 15 15 15 15 15 15 15 15 15 15 15 15 15 15 15 15 15 15 15
2 2 2 2 2 2 3 3 3 3 3 3 3 3 4 4 4 4 4 4 5 5 5 5 5 6 6 6 7 7 7 8 8 9 9 10 10 11 12 12 12 12 13 14 14 15 15 15 15 15 15 15 15 15 15 15 15 15 15 15 15 15 15 15 15 15 15 15 15
1 1 1 1 1 1 2 2 2 2 2 2 2 3 3 3 3 3 3 4 4 4 4 4 5 5 5 5 6 6 6 6 7 7 7 8 8 9 10 11 11 12 12 12 13 13 14 15 15 15 15 15 15 15 15 15 15 15 15 15 15 15 15 15 14 14 14 14 14
1 1 1 1 1 1 1 1 1 1 2 2 2 2 2 2 2 2 3 3 3 3 3 4 4 4 4 5 5 5 5 5 6 6 6 6 7 7 8 9 9 10 10 11 12 12 13 13 14 15 15 14 15 15 15 15 15 15 15 14 14 14 14 14 14 14 14 14 14
0 0 0 0 0 0 0 1 1 1 1 1 1 1 1 1 1 2 2 2 2 2 3 3 3 4 4 4 4 4 4 5 5 5 5 5 5 6 6 7 8 8 8 9 10 10 11 11 11 11 12 13 14 14 14 14 14 14 14 14 14 14 14 14 14 14 14 14 14
-0 -0 0 0 0 0 0 0 1 1 1 1 1 1 1 1 1 1 1 1 2 2 2 2 3 3 3 3 3 4 4 4 4 4 4 4 4 5 5 5 6 6 7 7 8 8 8 8 8 9 10 10 11 12 13 13 14 14 14 14 14 14 14 14 14 14 14 14 14
-1 -0 -0 -0 -0 -0 0 0 0 0 0 0 0 1 1 1 1 1 1 1 1 2 2 2 2 2 2 2 3 3 3 3 3 3 4 4 4 4 4 4 5 5 5 5 6 6 6 6 7 7 8 8 9 9 10 11 12 13 14 14 14 14 14 14 14 14 14 14 14
-1 -1 -1 -1 -1 -0 -0 -0 0 0 0 0 0 0 0 0 1 1 1 1 1 1 1 2 2 2 2 2 2 2 2 3 3 3 3 3 3 3 3 4 4 4 4 4 4 5 5 5 5 6 6 6 7 7 8 9 9 10 11 11 12 13 13 14 14 14 14 14 14
-1 -1 -1 -1 -1 -1 -0 -0 -0 -0 -0 0 0 0 0 0 1 1 1 1 1 1 2 2 2 2 2 1 2 2 2 2 2 2 2 2 3 3 3 3 3 3 3 3 3 4 4 4 4 5 5 5 5 6 6 7 7 7 8 8 8 9 10 11 11 12 13 14 14
-0 -1 -1 -1 -1 -1 -1 -1 -1 -1 -0 -0 -0 0 0 1 1 1 1 1 1 1 2 2 2 2 2 1 1 1 1 1 2 2 2 2 2 2 2 3 3 3 3 3 3 3 3 3 4 4 4 4 4 5 5 5 5 6 6 6 6 7 7 7 8 9 10 11 12
-0 -0 -0 -0 -0 -1 -1 -1 -1 -1 -1 -1 -1 -0 0 1 1 1 1 1 1 1 1 1 2 2 2 2 1 1 1 1 1 1 1 2 2 2 2 2 2 2 2 2 2 3 3 3 3 3 3 3 4 4 4 4 4 5 5 5 5 5 6 6 6 7 7 8 8
0 -0 -0 -0 -0 -1 -1 -1 -1 -1 -1 -1 -1 -1 -0 0 1 1 1 1 1 1 1 1 1 1 1 1 1 1 1 1 1 1 1 1 2 2 2 2 2 2 2 2 2 2 2 2 2 2 3 3 3 3 3 3 4 4 4 4 4 4 5 5 5 5 6 6 6
0 0 0 -0 -0 -1 -1 -1 -1 -1 -1 -1 -1 -1 -1 -0 0 0 1 0 0 0 1 1 1 1 1 1 1 1 1 1 1 1 1 1 1 2 2 2 2 2 2 2 2 2 2 2 2 2 2 2 3 3 3 3 3 3 3 3 4 4 4 4 4 4 5 5 5
0 0 0 0 -0 -0 -1 -1 -1 -1 -1 -1 -1 -1 -1 -1 -0 0 0 0 0 0 0 0 0 0 0 1 1 1 1 1 1 1 1 1 1 2 2 2 2 2 2 2 2 2 2 2 2 2 2 2 2 2 2 3 3 3 3 3 3 3 3 3 4 4 4 4 4
0 0 0 0 -0 -0 -0 -0 -1 -1 -1 -1 -1 -1 -1 -1 -0 -0 -0 -0 -0 -0 0 0 0 0 0 0 0 1 1 1 1 1 1 1 1 1 2 2 2 2 2 2 2 2 2 2 2 2 2 2 2 2 2 2 2 3 3 3 3 3 3 3 3 3 3 3 4
-0 -0 -0 -0 -0 -0 -0 -0 -0 -0 -0 -1 -1 -1 -1 -1 -1 -0 -0 -1 -0 -0 -0 -0 -0 -0 0 0 0 1 1 1 1 1 1 1 1 1 1 2 2 2 2 2 2 2 2 2 2 2 2 2 2 2 2 2 2 2 3 3 3 3 3 3 3 3 3 3 3
-0 -0 -0 -0 -0 -0 -0 -0 -0 -0 -0 -0 -0 -0 -0 -0 -0 -0 -0 -0 -0 -0 -0 -0 -0 -0 -0 0 0 0 0 1 1 1 1 1 1 1 1 1 1 1 2 2 2 2 2 2 2 2 2 2 2 2 2 2 2 2 2 2 2 2 2 2 2 2 2 2 3
-0 -0 -0 -0 -0 -0 -0 -0 -0 -0 -0 -0 -0 -0 -0 -0 -0 -0 -0 -0 -0 -0 -0 -0 -0 -0 -0 -0 0 0 0 0 0 0 0 1 1 1 1 1 1 1 1 1 2 2 2 2 2 2 2 2 2 2 2 2 2 2 2 2 2 2 2 2 2 2 2 2 2
-1 -1 -1 -1 -1 -1 -0 -0 -0 -0 -0 -0 -0 -0 -0 -0 -0 0 0 0 0 0 0 -0 -0 -0 -0 -0 -0 -0 -0 0 0 0 0 0 0 1 1 1 1 1 1 1 1 2 2 2 2 2 2 2 2 2 2 2 2 2 2 2 2 2 2 2 2 2 2 2 2
-1 -1 -1 -1 -1 -1 -1 -1 -1 -1 -0 -0 -0 -0 -0 -0 0 0 0 0 0 0 0 0 0 0 0 -0 -0 -0 -0 -0 -0 -0 -0 -0 0 0 0 1 1 1 1 1 1 1 2 2 2 2 2 2 2 2 2 2 2 2 2 2 2 2 2 2 2 2 2 2 2
-1 -1 -1 -1 -1 -1 -1 -1 -1 -1 -1 -1 -0 -0 -0 -0 -0 0 0 0 0 0 0 0 0 0 0 0 -0 -0 -0 -0 -0 -0 -0 -0 -0 -0 0 0 0 1 1 1 1 1 1 2 1 1 1 1 2 2 2 2 2 2 2 2 2 2 2 2 2 2 2 2 2
-1 -1 -1 -1 -1 -1 -1 -1 -1 -1 -1 -1 -1 -1 -0 -0 -0 -0 -0 -0 -0 0 0 0 0 0 0 -0 -0 -0 -0 -0 -0 -1 -0 -0 -0 -0 -0 -0 -0 0 0 1 1 1 1 1 1 1 1 1 1 1 2 2 2 1 2 2 2 2 2 2 2 2 2 2 2
-1 -1 -1 -1 -1 -1 -1 -1 -1 -1 -1 -1 -1 -1 -1 -1 -0 -0 -0 -0 -0 -0 -0 -0 -0 -0 -0 -0 -0 -0 -1 -1 -1 -1 -1 -1 -1 -1 -1 -1 -1 -0 0 0 1 1 1 1 1 1 1 1 1 1 1 1 1 1 1 1 1 1 1 2 2 2 2 2 2
-2 -1 -1 -1 -1 -1 -1 -1 -1 -1 -1 -1 -1 -1 -1 -1 -1 -1 -1 -1 -1 -1 -0 -0 -0 -0 -0 -0 -0 -0 -1 -1 -1 -1 -1 -1 -1 -1 -1 -1 -1 -1 -0 0 0 0 1 1 1 1 1 0 0 0 1 1 1 1 1 1 1 1 1 1 2 2 2 2 2
-2 -2 -2 -1 -1 -1 -1 -1 -1 -1 -1 -1 -1 -1 -1 -1 -1 -1 -1 -1 -1 -1 -1 -1 -1 -0 -0 -0 -0 -1 -1 -1 -1 -1 -1 -1 -1 -1 -1 -1 -1 -1 -1 -0 0 0 0 0 0 0 0 0 0 0 0 0 1 1 1 1 1 1 1 1 1 1 2 2 2
-2 -2 -2 -2 -1 -1 -1 -1 -1 -1 -1 -1 -1 -1 -1 -1 -1 -1 -1 -1 -1 -1 -1 -1 -1 -1 -1 -1 -1 -1 -1 -1 -1 -1 -1 -1 -1 -1 -1 -1 -1 -1 -1 -0 -0 -0 -0 0 0 0 0 0 0 0 0 0 0 1 1 1 1 1 1 1 1 1 1 1 2
-2 -2 -2 -2 -2 -2 -1 -2 -1 -1 -1 -1 -1 -1 -1 -1 -1 -1 -1 -1 -1 -1 -1 -1 -1 -1 -1 -1 -1 -1 -1 -1 -1 -1 -1 -1 -1 -1 -1 -1 -1 -1 -1 -1 -1 -0 -0 -0 -0 -0 0 0 -0 -0 0 0 0 1 1 0 1 1 1 1 1 1 1 1 1
-2 -2 -2 -2 -2 -2 -2 -2 -1 -1 -1 -1 -1 -1 -1 -1 -1 -1 -1 -1 -1 -1 -1 -1 -1 -1 -1 -1 -1 -1 -1 -1 -1 -1 -1 -1 -1 -1 -1 -1 -2 -1 -1 -1 -1 -1 -1 -1 -1 -0 -0 -0 -0 -0 -0 0 0 0 0 0 0 0 0 0 0 0 1 1 1
-2 -2 -2 -2 -2 -2 -2 -2 -2 -1 -1 -1 -1 -1 -1 -1 -1 -1 -1 -1 -1 -1 -1 -1 -1 -1 -1 -1 -1 -1 -2 -2 -2 -2 -2 -1 -1 -1 -1 -1 -2 -2 -1 -1 -1 -1 -1 -1 -1 -1 -1 -1 -1 -1 -0 -0 0 0 0 0 0 0 0 0 0 0 0 1 1
-3 -3 -2 -2 -2 -2 -2 -2 -2 -2 -1 -1 -1 -1 -1 -1 -1 -1 -1 -1 -1 -1 -1 -1 -1 -1 -1 -1 -1 -1 -2 -2 -2 -2 -2 -2 -1 -1 -1 -1 -2 -2 -1 -1 -1 -1 -1 -1 -1 -1 -1 -1 -1 -1 -1 -0 -0 -0 -0 -0 -0 -0 -0 -0 -0 -0 0 0 0
-3 -3 -3 -2 -2 -2 -2 -2 -2 -2 -2 -2 -1 -1 -1 -1 -1 -1 -1 -1 -1 -1 -1 -1 -1 -1 -1 -1 -1 -1 -1 -2 -2 -2 -2 -2 -2 -1 -1 -1 -1 -2 -1 -1 -1 -1 -1 -1 -1 -1 -1 -1 -1 -1 -1 -1 -0 -0 -0 -0 -0 -0 -0 -0 -0 -0 -0 -0 -0
-3 -3 -3 -3 -2 -2 -2 -2 -2 -2 -2 -2 -2 -2 -1 -1 -1 -1 -1 -1 -1 -1 -1 -1 -1 -1 -1 -1 -1 -1 -1 -1 -1 -1 -2 -2 -2 -1 -1 -1 -1 -1 -1 -1 -1 -1 -1 -1 -1 -1 -1 -2 -2 -1 -1 -1 -1 -1 -1 -1 -1 -1 -1 -1 -1 -1 -0 -0 -1
-3 -3 -3 -3 -2 -2 -2 -2 -2 -2 -2 -2 -2 -2 -2 -2 -2 -2 -2 -1 -1 -1 -1 -1 -1 -1 -1 -1 -1 -1 -1 -1 -1 -1 -1 -1 -2 -1 -1 -1 -1 -1 -1 -1 -1 -1 -1 -1 -1 -1 -1 -2 -2 -2 -1 -1 -1 -1 -1 -1 -1 -1 -1 -1 -1 -1 -1 -1 -1
-3 -3 -3 -3 -2 -2 -2 -2 -2 -2 -2 -2 -2 -2 -2 -2 -2 -2 -2 -1 -1 -1 -1 -1 -1 -1 -1 -1 -0 -0 -0 -1 -1 -1 -1 -1 -1 -1 -1 -1 -1 -1 -1 -1 -1 -1 -1 -1 -1 -1 -1 -2 -2 -2 -2 -1 -1 -1 -1 -1 -1 -1 -1 -1 -1 -1 -1 -1 -1
-3 -3 -3 -3 -2 -2 -2 -2 -2 -2 -2 -2 -2 -2 -2 -2 -2 -2 -2 -2 -1 -1 -1 -1 -1 -1 -1 -1 -1 -0 -0 -1 -1 -1 -1 -1 -1 -1 -1 -1 -1 -1 -1 -1 -1 -1 -1 -1 -1 -1 -1 -2 -2 -2 -2 -2 -2 -1 -1 -1 -1 -1 -1 -1 -1 -1 -1 -1 -1
-3 -3 -3 -3 -2 -2 -2 -2 -2 -2 -3 -2 -2 -2 -2 -2 -2 -2 -2 -2 -2 -1 -1 -1 -1 -1 -1 -1 -1 -1 -1 -1 -1 -1 -1 -1 -1 -1 -1 -1 -1 -1 -1 -1 -1 -1 -1 -1 -1 -1 -1 -2 -2 -2 -2 -2 -2 -1 -1 -2 -2 -2 -2 -2 -2 -2 -2 -2 -1
-3 -3 -3 -3 -2 -2 -2 -3 -3 -3 -3 -3 -2 -2 -2 -2 -2 -2 -2 -2 -2 -2 -2 -2 -1 -1 -1 -1 -1 -1 -1 -1 -1 -1 -1 -1 -1 -1 -1 -1 -1 -1 -1 -1 -1 -1 -1 -1 -1 -1 -1 -2 -2 -2 -1 -2 -1 -1 -1 -2 -2 -2 -2 -2 -2 -2 -2 -2 -2
Height
723 723 723 722 722 721 720 720 720 720 720 720 720 719 718 718 719 719 719 717 716 714 713 713 712 712 711 711 710 709 708 708 707 707 708 709 710 710 711 711 712 712 712 712 713 714 714 715 715 716 716 716 716 717 717 718 719 719 720 720 720 721 722 722 722 722 723 724 725
725 725 724 723 723 722 722 722 722 721 721 721 720 720 720 720 720 719 719 717 716 714 713 713 712 711 710 708 708 708 708 708 707 707 707 708 709 709 709 710 710 710 710 710 711 711 711 712 712 713 713 713 714 714 714 715 716 717 717 717 717 718 719 720 720 720 721 722 722
727 727 726 725 724 724 723 723 723 722 722 721 722 722 722 722 721 720 720 718 717 715 714 714 712 710 708 707 706 706 706 706 706 707 706 706 707 707 708 708 708 708 708 708 708 708 709 709 709 709 709 710 710 711 711 712 712 713 714 714 715 716 717 717 717 717 718 719 720
730 729 728 727 727 726 725 725 724 723 723 722 723 722 722 722 722 721 720 719 717 716 715 715 713 710 708 707 706 706 706 706 705 705 706 706 706 707 707 707 707 707 706 706 706 706 706 706 706 706 706 706 706 707 707 708 709 709 710 710 711 712 712 712 713 714 715 715 716
732 732 731 730 729 728 727 727 726 725 724 724 723 723 722 722 722 721 721 720 718 717 717 715 713 711 709 708 708 708 708 707 706 706 707 707 706 706 706 706 705 705 705 704 704 703 703 703 703 703 703 703 703 703 703 704 705 705 706 706 707 707 707 708 708 709 710 711 712
735 734 733 732 731 730 729 728 727 727 726 725 724 723 723 723 723 723 723 722 720 718 717 716 713 712 711 711 711 710 709 708 708 708 708 707 706 705 703 703 702 702 702 702 702 701 701 700 700 701 701 701 700 700 700 701 701 702 702 703 703 703 704 704 705 706 707 707 709
738 737 736 734 733 732 730 729 728 727 726 725 725 725 726 726 727 726 725 723 720 718 717 716 715 714 713 713 713 712 711 710 710 710 709 708 707 705 703 702 702 701 700 700 699 699 699 699 699 699 699 699 698 698 698 698 698 699 699 700 700 700 701 701 702 703 704 705 707
740 739 738 737 735 733 732 731 729 728 727 727 727 728 729 729 729 727 725 722 721 720 719 718 717 716 716 715 715 714 713 712 712 711 710 709 707 706 704 703 702 702 701 700 699 698 698 698 699 699 699 698 698 698 698 697 697 697 697 697 698 698 698 699 700 701 702 703 704
742 741 740 738 737 735 733 732 730 730 729 730 731 732 732 732 730 728 725 724 723 722 720 719 718 718 717 717 716 716 716 715 714 713 712 710 708 707 705 703 703 702 702 701 700 699 699 698 699 699 698 698 698 698 698 698 698 698 697 697 697 697 697 698 699 700 700 702 703
744 743 742 740 738 737 735 733 732 732 732 733 734 734 734 733 731 729 727 727 725 722 721 720 720 719 718 718 718 718 718 717 716 714 713 712 710 708 707 706 705 704 703 702 702 701 700 700 699 699 698 698 698 698 698 698 698 698 698 698 698 698 698 698 698 699 700 701 702
747 745 744 742 740 738 736 735 734 735 736 736 736 736 735 734 733 731 730 727 725 724 723 722 722 721 720 719 720 720 720 718 717 716 715 713 712 710 709 708 707 706 705 704 703 703 702 702 702 701 699 698 698 698 698 698 698 699 699 699 700 700 699 699 699 699 699 700 701
748 747 745 743 741 739 738 737 737 738 738 738 737 737 737 736 734 732 730 727 726 726 726 725 724 723 722 722 722 722 721 720 719 717 717 716 714 712 711 710 709 708 707 707 706 705 705 704 704 702 702 701 701 700 700 699 698 699 699 700 700 700 701 700 700 700 700 699 700
750 748 746 744 742 741 740 740 739 739 739 739 739 739 738 737 736 733 730 728 728 728 728 727 726 725 724 724 724 724 723 722 721 720 718 717 716 714 713 712 711 710 709 709 708 708 707 707 706 705 704 704 704 704 703 702 701 700 700 699 700 700 701 701 702 702 701 701 701
751 749 747 745 743 742 741 741 741 740 740 740 741 741 740 738 736 734 732 731 731 730 730 729 728 727 727 727 727 726 725 724 723 722 720 719 717 716 715 714 713 712 712 711 711 710 709 708 708 707 707 707 707 706 705 704 703 703 702 702 702 702 702 702 701 701 701 702 702
752 750 748 746 744 743 742 742 742 742 743 743 743 742 741 739 737 735 734 733 733 733 732 731 730 730 729 729 729 728 727 726 724 723 722 720 719 718 717 716 715 715 714 713 713 712 712 711 710 710 709 709 708 708 707 707 706 705 705 705 705 705 704 704 702 702 702 702 702
752 750 748 747 746 745 744 745 745 746 747 747 746 744 742 740 739 737 737 736 736 735 734 733 732 732 732 732 731 730 728 727 726 724 723 722 721 720 718 718 717 717 716 715 715 714 714 713 713 712 712 711 710 710 709 708 708 707 707 707 707 706 706 706 705 705 704 704 703
753 751 750 749 748 748 748 749 750 750 750 749 747 745 743 742 741 740 739 739 738 737 736 735 735 734 734 733 732 731 730 729 727 726 725 724 723 722 721 720 719 719 718 717 717 717 716 715 715 714 713 713 712 712 711 710 710 709 709 708 708 708 707 707 707 707 706 706 706
754 753 752 752 752 753 753 753 753 753 752 750 748 747 745 744 743 742 742 741 740 739 738 737 737 737 736 735 734 733 732 730 729 727 726 725 725 724 723 722 722 721 720 720 720 719 718 717 717 716 715 714 714 713 713 712 711 710 710 709 709 709 709 709 709 708 708 708 707
757 757 756 756 757 757 756 756 755 754 753 752 750 748 747 746 745 744 743 742 742 741 740 740 739 738 738 737 735 734 733 732 730 729 728 727 727 726 725 724 723 723 722 722 722 721 720 719 718 718 717 716 716 715 714 713 712 711 711 710 710 710 710 710 710 710 710 709 709
760 760 759 759 759 758 757 757 756 755 754 753 752 750 749 748 747 746 745 744 743 742 742 742 741 740 738 737 736 734 733 732 731 730 729 729 728 727 727 726 725 725 725 724 723 722 722 721 720 719 718 718 717 716 715 714 713 712 712 711 711 711 712 711 711 711 711 711 710
762 762 761 760 760 759 758 758 757 756 756 755 754 753 752 750 749 748 747 746 745 744 744 743 742 740 738 737 736 735 735 734 733 732 731 730 729 728 728 728 727 727 726 725 724 724 723 723 722 721 720 719 718 717 716 714 713 712 712 712 712 713 713 713 712 712 712 712 712
763 763 762 762 761 760 760 759 758 757 757 756 755 754 752 751 750 749 748 747 746 745 744 743 742 741 739 738 737 737 736 735 734 733 732 731 731 730 729 729 728 727 727 726 726 726 725 724 723 722 721 720 719 717 716 715 714 713 713 714 714 714 714 714 714 713 713 713 713
765 764 763 762 762 761 761 760 759 758 757 756 755 754 753 752 751 750 748 747 746 745 744 743 742 742 741 739 738 738 737 736 735 734 733 733 732 731 731 730 729 729 728 728 727 727 726 725 724 723 722 720 719 718 717 716 716 715 715 715 715 715 715 715 715 715 714 714 714
767 766 765 764 763 762 762 761 760 759 758 757 756 755 753 752 751 750 748 747 746 745 744 744 743 742 742 740 739 738 737 737 736 735 734 734 733 732 732 731 730 730 730 729 729 728 727 726 725 723 722 721 720 719 719 718 718 717 717 717 717 716 716 716 716 716 715 715 715
769 768 767 766 765 764 763 762 761 760 759 758 757 756 754 753 752 750 748 747 747 746 745 745 744 744 742 742 740 739 738 737 737 736 735 735 734 733 732 732 732 731 731 731 730 729 728 727 726 725 723 722 722 721 720 720 720 719 719 719 718 717 717 717 717 716 716 716 716
770 769 768 767 767 765 764 763 762 761 760 758 757 756 755 754 752 751 750 749 748 748 747 747 746 745 744 743 742 741 740 739 738 737 737 736 735 735 734 733 733 733 733 732 732 731 729 728 727 727 725 724 723 722 722 722 721 721 720 720 719 719 718 718 717 717 717 717 716
771 770 769 768 767 766 765 764 763 762 760 759 758 757 756 755 754 753 752 751 751 750 749 748 748 747 746 745 743 742 742 741 740 739 738 738 737 736 736 735 735 735 735 734 733 732 731 730 729 728 727 726 725 724 723 723 722 722 722 721 720 720 720 719 719 718 717 717 717
772 771 770 769 768 767 766 764 763 762 761 760 759 758 757 756 755 754 754 753 752 752 751 750 749 748 747 747 745 744 743 742 742 741 740 740 739 738 737 737 737 736 736 735 734 732 732 731 730 729 728 727 726 725 725 724 724 723 722 722 722 721 721 720 720 719 718 718 717
772 772 771 769 768 767 766 765 764 763 762 761 760 759 758 757 757 756 755 754 754 753 752 751 751 750 749 748 747 746 745 744 744 743 742 741 741 740 739 738 738 737 737 736 735 734 733 732 731 730 729 728 727 727 726 726 725 725 724 723 723 722 722 721 721 720 719 718 718
774 772 772 771 770 768 767 766 765 764 763 762 761 760 759 758 757 757 756 755 755 754 753 752 752 751 750 749 748 747 747 746 745 744 743 743 742 742 741 740 739 739 738 737 736 735 734 733 732 731 731 730 729 728 727 727 727 726 725 725 724 724 723 722 722 721 720 719 718
775 774 773 772 771 770 769 768 767 766 765 764 762 762 761 760 759 758 757 756 756 755 754 753 752 752 751 750 750 749 748 747 747 746 745 744 744 743 742 742 741 740 739 738 737 737 736 735 734 733 732 731 730 729 729 728 728 727 727 726 725 725 724 723 722 722 721 720 719
776 775 774 773 772 771 770 769 768 767 766 765 764 763 762 761 760 759 758 757 757 756 755 754 753 752 752 751 751 750 749 748 748 747 746 746 745 744 744 743 742 741 741 740 739 738 737 736 735 734 733 732 731 731 730 730 729 728 728 727 727 726 725 724 724 723 722 721 721
777 776 775 774 773 772 771 770 769 768 767 766 765 764 763 762 761 760 759 758 757 757 756 755 754 753 753 752 752 751 750 750 749 748 747 747 746 746 745 744 743 742 742 741 740 739 738 737 736 735 734 733 732 732 731 731 730 729 729 728 727 727 726 726 725 724 723 722 722
777 776 775 774 773 772 771 770 769 768 767 766 765 764 763 762 762 761 760 759 758 757 757 756 755 755 754 753 752 752 751 750 750 749 748 747 747 746 746 745 744 744 743 742 741 740 739 738 737 737 736 734 733 732 732 731 731 730 730 729 728 728 727 726 726 725 724 723 722
777 777 775 774 773 772 772 771 769 768 767 767 766 765 764 763 762 761 760 760 759 758 757 757 756 755 754 754 753 752 752 751 750 750 749 748 747 747 746 746 745 745 744 743 742 741 740 739 738 737 736 735 734 733 733 732 732 731 730 730 729 728 728 727 727 726 725 724 724
778 777 776 775 774 773 772 771 770 769 768 767 766 765 764 763 762 762 761 760 759 758 758 757 756 755 755 754 753 752 752 751 751 750 749 749 748 747 747 746 746 745 744 744 743 742 741 740 739 738 737 736 735 734 733 733 732 732 731 730 730 729 728 728 727 727 726 725 725
779 778 777 776 775 774 773 772 771 769 768 767 767 766 765 764 763 762 761 760 759 759 758 757 757 756 755 754 754 753 752 752 751 751 750 749 748 748 747 747 747 746 745 744 743 743 742 741 740 738 737 737 736 735 734 733 733 732 732 731 730 730 729 728 728 727 727 726 725
780 779 778 777 776 775 773 772 772 770 769 768 767 767 766 765 764 763 762 761 760 759 759 758 757 757 756 755 754 754 753 753 752 751 751 750 749 749 748 747 747 747 746 745 744 743 742 742 740 739 738 737 736 735 735 734 733 733 732 731 731 730 729 729 728 727 727 726 726
780 779 778 777 776 775 774 773 772 771 770 769 768 767 766 765 764 763 763 762 761 760 759 758 758 757 756 756 755 754 754 753 752 752 751 750 750 749 748 748 747 747 746 746 745 744 743 742 741 740 738 737 737 736 735 734 734 733 732 732 731 730 730 729 728 727 727 726 726
781 779 778 777 777 776 775 774 773 772 771 770 769 768 767 766 765 764 763 762 761 760 759 759 758 757 756 755 755 754 753 753 752 752 751 750 750 749 749 748 747 747 746 746 745 744 743 742 741 740 739 737 737 736 735 735 734 733 732 732 731 730 729 729 728 727 727 726 725
781 779 778 777 777 776 775 774 773 772 771 770 769 768 767 766 765 764 762 762 761 760 759 758 757 756 756 755 754 753 753 752 752 751 751 750 750 749 749 748 747 747 746 745 745 744 743 742 741 740 739 738 737 736 736 735 734 733 732 732 731 730 729 728 727 727 726 725 725
Wind_Speed
20 19 17 16 15 15 16 17 16 16 16 17 17 16 16 14 13 11 11 12 13 14 13 11 10 9 10 11 13 15 17 18 20 20 21 22 22 22 23 24 25 26 28 30 32 32 32 32 31 32 32 31 29 30 31 33 33 33 33 34 34 34 35 36 35 36 37 37 35
23 22 20 19 17 16 16 17 17 17 17 18 18 18 18 17 16 16 17 17 17 17 17 16 15 14 12 11 9 8 10 12 15 17 18 19 19 20 20 21 23 24 26 28 30 31 31 32 33 34 34 34 32 31 32 34 35 34 33 34 35 34 35 37 37 37 37 37 37
24 24 23 22 21 19 18 18 18 19 20 20 20 19 18 17 17 17 18 18 19 19 18 17 17 17 16 15 13 10 9 9 10 11 13 15 18 20 21 22 23 24 25 27 29 30 31 33 34 36 36 36 35 34 34 35 36 36 36 38 37 37 37 38 39 39 38 37 37
25 25 24 24 23 22 20 20 20 21 22 23 22 20 20 20 20 19 19 21 21 21 21 20 20 21 20 19 16 14 12 9 7 7 8 10 13 16 19 21 22 24 25 26 27 29 30 32 34 35 35 35 34 34 34 35 36 38 39 40 40 39 38 37 38 39 39 38 38
25 25 24 24 23 22 22 21 22 22 23 24 24 24 23 23 23 22 22 22 23 23 22 23 24 25 25 23 21 19 17 15 12 10 9 8 7 7 6 7 11 15 18 21 24 26 28 31 32 32 33 34 36 37 37 38 38 39 40 41 41 40 39 38 38 38 39 39 38
25 25 25 25 25 24 23 23 23 24 25 27 27 27 26 26 24 23 22 21 23 24 24 26 27 28 27 26 24 24 23 23 21 19 17 15 13 11 9 9 9 8 7 8 12 17 23 27 29 29 30 31 34 36 38 38 38 39 39 38 39 39 39 39 37 37 37 37 37
24 25 25 26 26 26 25 25 25 26 28 29 29 28 27 26 24 22 22 22 25 26 26 27 28 29 29 28 26 26 26 26 25 24 23 22 21 19 16 14 13 12 11 10 8 7 10 16 22 24 24 24 26 28 31 33 34 35 35 35 35 36 36 36 35 34 33 33 35
24 25 25 26 26 27 27 27 27 28 29 30 29 28 26 24 23 22 23 25 27 27 26 27 28 28 29 29 28 28 27 27 27 26 26 25 25 25 24 22 20 19 17 15 14 12 10 7 6 8 10 13 15 17 20 23 26 28 29 30 30 30 32 32 32 30 30 30 31
24 24 24 25 26 27 28 28 29 29 29 29 28 27 25 24 24 24 25 27 27 27 28 28 29 28 29 29 29 29 29 28 27 27 28 28 28 29 28 28 27 26 24 23 21 19 18 18 16 15 11 6 4 7 10 15 19 21 23 23 23 24 26 28 27 27 27 27 28
24 23 23 24 25 27 28 29 30 30 29 27 27 26 25 25 25 26 25 25 26 28 29 30 29 29 29 29 29 29 29 28 28 28 28 30 31 31 31 31 31 30 29 28 27 26 25 25 25 24 21 18 15 11 6 4 10 15 18 19 19 20 21 24 25 25 26 26 28
24 23 23 23 24 26 28 29 30 29 28 26 26 25 25 25 25 25 25 26 27 29 29 30 30 29 29 29 29 29 29 29 29 28 28 29 30 32 32 32 32 32 32 31 31 30 30 29 29 28 27 26 24 23 20 15 7 3 6 10 13 16 18 21 24 26 27 27 28
24 24 24 25 26 27 29 29 29 28 28 26 25 25 25 25 25 25 27 28 29 29 29 29 29 30 30 29 29 28 28 28 28 28 28 28 30 31 32 32 33 33 33 32 32 31 31 30 30 30 30 30 29 28 26 24 22 19 16 12 8 5 7 11 17 21 24 26 28
24 25 26 27 28 28 29 29 29 29 28 27 26 24 24 24 25 27 28 29 29 28 28 28 29 29 29 29 28 28 28 28 28 28 28 29 30 31 32 32 32 32 32 32 32 31 31 30 30 30 30 30 30 29 28 28 27 27 26 25 24 22 19 14 8 6 11 18 22
25 26 27 29 29 29 29 29 29 29 29 28 26 24 24 25 27 28 29 29 28 28 27 27 28 28 28 28 28 28 28 28 28 27 28 29 30 31 31 32 32 32 32 32 32 31 31 31 30 29 29 28 29 29 29 29 29 28 27 27 27 27 27 26 24 20 15 9 7
24 26 28 30 31 31 30 29 29 29 28 27 25 23 23 24 26 28 29 28 28 27 26 26 26 27 27 27 27 27 28 28 28 28 28 28 30 31 31 32 32 32 32 31 31 31 31 30 29 29 28 27 28 28 29 29 29 28 27 27 26 26 26 26 26 27 26 25 22
23 25 27 29 30 31 30 29 28 27 26 25 25 24 24 24 25 26 27 26 26 26 25 25 25 25 25 25 26 27 27 28 28 28 28 28 29 30 31 31 31 31 31 31 31 31 30 30 29 28 28 27 27 27 27 27 27 27 27 26 26 26 25 26 26 26 26 27 27
23 24 25 26 27 27 27 26 25 24 24 25 25 25 25 25 25 25 25 24 24 24 24 24 23 24 24 24 24 25 26 26 26 27 27 28 28 29 30 30 30 29 29 30 30 30 30 29 29 28 28 27 27 26 26 26 26 26 26 26 26 26 26 26 26 26 25 25 25
23 24 24 23 23 22 22 22 22 22 23 24 25 25 26 26 26 26 25 24 23 23 23 22 22 22 22 23 23 24 25 26 26 25 26 26 26 27 28 29 29 29 29 29 28 28 29 28 28 28 27 27 26 26 26 26 26 26 26 26 26 26 26 26 26 26 26 25 24
22 22 22 21 20 19 18 19 20 21 21 22 23 24 25 26 26 26 26 25 24 23 22 21 20 20 21 22 23 23 24 26 26 25 24 24 24 24 25 27 27 28 28 28 28 28 28 27 27 27 27 26 25 25 25 25 25 26 26 26 26 26 26 26 26 26 26 25 24
20 21 20 20 19 19 18 18 19 19 19 19 20 21 22 23 24 25 25 24 23 22 22 21 21 21 22 23 24 24 24 24 25 25 24 24 23 23 23 24 25 26 27 27 27 27 27 26 26 25 25 25 25 24 24 24 25 25 25 25 25 25 25 25 25 25 25 25 24
20 20 20 20 20 19 19 19 18 18 17 17 17 17 19 20 21 22 22 21 21 21 22 21 22 22 23 24 24 24 24 23 24 24 24 23 23 22 22 23 24 25 26 26 26 26 25 25 24 24 23 24 24 24 23 24 24 24 24 24 24 24 24 24 24 24 24 24 23
21 21 20 20 20 20 19 19 19 18 17 17 17 17 18 19 20 20 20 20 21 21 22 22 22 23 24 24 24 24 23 23 24 24 24 23 22 22 21 22 23 25 26 27 27 26 24 23 23 22 22 22 23 23 23 23 24 23 23 22 23 23 23 23 23 23 24 24 22
21 21 21 21 21 20 20 19 19 18 18 19 19 19 19 20 20 21 21 22 23 23 23 23 23 24 25 25 24 23 24 24 24 24 24 23 22 21 21 21 22 24 25 26 26 26 25 23 22 22 21 21 22 22 22 22 23 22 21 21 21 22 22 22 22 23 23 23 22
20 20 20 20 21 20 20 20 19 19 19 19 20 20 20 20 21 22 23 24 25 25 25 25 24 24 25 26 25 25 24 25 25 25 25 24 23 22 21 21 21 23 24 25 26 26 25 24 23 22 21 20 20 20 19 20 21 21 20 20 20 21 21 21 21 22 22 22 22
19 19 19 20 20 20 20 20 20 20 20 20 20 20 20 21 22 23 24 25 25 25 25 24 24 24 25 26 27 26 25 25 26 26 25 24 24 23 22 21 21 22 23 25 26 27 26 25 24 22 20 20 19 18 17 18 19 19 19 19 19 20 20 20 21 21 21 21 21
19 19 19 19 19 19 20 20 20 20 20 21 21 21 21 21 22 23 23 23 23 23 22 22 22 22 23 24 26 26 26 25 25 25 25 24 24 23 22 22 21 22 23 25 26 27 26 26 25 23 21 20 19 18 17 17 17 18 18 18 19 19 19 18 19 20 20 21 21
19 19 19 19 19 19 19 19 20 20 21 21 21 21 21 21 21 22 22 22 21 21 20 20 20 19 20 22 24 25 25 24 24 24 24 23 23 22 22 22 22 22 24 26 26 26 26 26 26 24 22 20 19 18 17 17 17 18 18 18 18 19 19 18 18 18 19 19 20
19 19 19 19 19 19 19 20 20 20 20 21 21 21 21 21 20 20 20 20 20 20 19 18 18 17 18 19 21 22 23 22 22 22 23 23 22 22 22 22 22 23 24 26 26 26 26 26 26 24 23 21 19 18 18 17 17 17 17 17 18 19 19 18 18 18 18 19 19
19 19 19 19 19 19 20 20 20 19 19 20 20 20 20 20 20 19 19 19 19 19 18 18 17 17 17 18 19 20 21 21 21 21 21 21 21 21 22 22 22 23 25 26 26 26 26 26 26 25 23 21 19 18 17 16 16 16 16 16 18 18 19 18 18 18 19 19 19
19 18 18 18 18 18 19 19 19 18 18 18 19 19 19 19 19 19 19 18 18 18 18 17 17 17 17 17 17 18 19 20 20 20 19 20 19 20 21 22 22 23 24 25 25 25 26 26 25 24 23 21 19 18 17 17 16 16 16 16 17 18 18 18 18 19 19 20 19
18 17 17 17 17 17 17 17 17 17 17 17 17 17 18 18 18 18 17 17 16 16 17 17 17 17 16 16 16 17 18 19 19 19 18 18 17 18 19 21 22 23 24 24 24 25 25 25 24 24 22 21 19 18 18 17 16 16 16 16 17 18 18 18 18 19 19 19 19
17 16 16 16 16 16 16 16 16 15 15 15 15 16 16 16 16 16 16 15 15 15 16 17 17 16 16 15 15 16 17 18 18 18 18 16 16 16 17 18 20 22 22 23 23 23 24 24 24 23 22 20 19 18 17 16 16 15 16 16 17 18 18 18 18 18 19 19 19
17 16 16 15 15 15 15 15 15 15 15 15 15 15 15 15 15 15 15 14 14 14 14 15 15 15 14 14 14 14 15 15 16 17 17 16 15 14 15 16 18 19 21 22 22 22 23 23 23 22 21 19 18 17 17 16 15 15 15 16 16 17 17 18 18 18 18 18 18
17 16 16 15 15 15 15 15 15 15 15 15 15 15 14 14 15 15 15 14 14 13 13 13 14 13 13 12 12 12 13 13 14 15 15 15 14 14 13 14 15 17 19 20 21 21 21 22 22 21 20 18 17 17 16 15 15 15 15 15 16 16 16 17 17 17 17 17 18
17 17 16 16 15 15 16 16 16 16 16 16 15 15 15 15 15 15 14 14 14 13 13 13 13 13 13 12 11 11 11 12 12 13 14 14 13 13 13 13 14 15 18 20 20 20 21 21 22 21 19 17 16 16 15 14 14 14 14 15 15 15 16 16 16 16 16 16 17
16 16 16 16 15 16 16 16 16 16 16 16 16 16 15 15 15 14 14 14 14 13 13 13 14 14 13 12 11 11 11 11 12 12 12 12 12 12 12 12 13 15 17 19 19 20 20 21 21 21 19 17 16 15 14 14 13 13 14 14 14 15 15 15 15 15 15 16 17
15 15 15 15 15 15 15 15 16 16 16 16 16 15 15 15 14 14 15 14 14 14 13 13 14 14 13 12 11 11 11 11 12 12 11 11 11 11 12 12 13 14 15 18 18 19 20 21 22 21 20 17 16 14 14 13 13 13 13 14 14 14 14 14 14 14 14 15 16
14 14 14 14 14 14 14 15 15 15 15 15 15 14 14 14 14 14 14 14 14 13 13 13 13 14 13 12 11 11 11 12 12 12 12 11 11 11 11 12 12 13 15 17 18 18 19 20 22 22 20 17 15 13 13 12 12 13 13 14 14 14 14 14 14 14 14 14 15
13 13 13 13 13 13 13 14 14 14 14 14 14 13 13 13 13 13 13 13 13 12 11 12 13 13 13 12 11 11 12 13 14 14 13 12 12 12 12 13 13 14 15 16 18 18 19 20 22 22 21 17 15 13 11 11 12 12 13 13 14 14 14 14 14 14 14 14 14
13 13 13 13 13 12 13 13 13 13 14 14 14 13 13 12 13 13 13 13 13 12 12 12 13 14 14 13 13 13 15 16 16 16 16 15 14 14 14 15 15 16 17 18 19 20 20 21 23 23 22 19 16 14 13 12 12 13 13 13 13 13 13 13 13 13 13 14 14
14 14 14 14 13 12 13 14 14 14 14 15 15 14 14 14 15 15 16 16 16 16 15 15 17 18 18 17 17 17 18 19 19 19 18 17 16 16 16 17 17 18 19 19 20 21 22 23 24 25 25 23 20 17 16 16 16 16 17 16 15 14 14 14 13 12 12 12 12
Wind_Direction
37 37 38 39 43 47 49 48 46 44 41 38 32 26 22 19 15 10 6 6 5 2 355 345 331 312 296 284 271 257 246 241 236 233 232 234 235 237 238 239 239 238 236 235 234 233 233 232 232 233 234 233 231 229 228 228 227 226 224 223 222 221 220 219 218 217 217 217 218
36 37 38 40 42 44 44 43 41 41 41 40 37 34 32 30 26 23 22 21 19 18 17 14 8 3 358 353 339 307 279 267 256 248 244 244 246 248 248 250 251 250 247 243 239 237 235 232 231 231 232 233 232 231 229 229 228 227 225 224 224 223 223 223 222 221 219 219 219
36 37 38 39 41 43 43 42 41 41 43 43 41 38 34 30 26 23 22 22 23 23 21 16 13 13 15 17 15 7 350 327 301 284 274 269 264 259 256 256 256 256 255 252 248 245 240 236 232 230 230 231 231 231 231 230 228 226 225 225 225 226 226 226 225 223 222 221 220
37 37 37 38 40 42 43 43 43 44 45 46 44 41 38 34 31 29 27 27 29 29 26 22 22 25 28 29 28 25 19 7 346 326 314 301 288 278 271 263 258 257 257 256 253 250 246 240 236 233 230 228 227 228 228 228 226 225 224 224 225 224 224 224 224 223 222 221 220
36 37 38 39 40 42 44 44 44 45 46 46 45 42 39 36 33 31 30 30 30 30 30 29 31 34 37 37 36 36 36 37 39 37 31 24 15 2 340 307 286 274 267 261 258 254 250 244 239 236 234 231 229 227 226 226 224 223 223 223 222 222 221 221 221 221 220 220 219
36 37 38 39 41 42 44 45 45 46 46 46 44 41 38 36 34 32 31 31 32 33 33 34 36 38 39 39 38 38 39 41 42 42 41 42 41 40 38 34 26 11 341 304 281 266 255 247 241 239 237 235 230 228 226 225 223 221 220 220 220 220 219 219 219 218 217 216 216
37 37 38 39 41 42 43 44 45 46 46 45 42 39 36 34 33 31 32 34 36 35 34 35 36 38 38 38 37 37 38 39 39 39 38 39 40 42 43 42 38 34 30 23 8 333 286 258 246 241 238 234 230 227 225 223 220 218 217 217 217 217 216 215 214 212 211 210 211
38 38 38 39 41 42 43 44 44 45 44 43 40 37 34 31 30 30 32 35 36 35 34 35 37 38 38 38 37 36 37 37 37 37 37 37 39 41 44 44 43 41 39 36 35 32 24 1 295 267 254 243 234 229 226 222 218 215 213 212 212 211 210 208 207 206 205 205 205
36 37 38 40 42 43 44 45 45 45 44 42 39 37 34 31 30 31 32 34 34 35 36 37 38 39 39 38 37 37 36 35 34 34 35 37 38 39 42 43 43 42 41 41 41 43 44 42 35 26 16 358 296 252 237 228 220 216 213 211 210 208 207 206 205 205 205 206 206
35 35 36 38 41 44 46 47 47 46 45 41 38 36 34 33 32 33 33 33 35 36 37 38 39 39 39 38 37 37 36 34 34 33 34 36 37 38 40 41 41 40 40 41 42 43 43 42 40 40 39 36 31 23 4 279 234 225 221 220 218 216 214 212 210 210 211 211 211
36 36 37 39 41 44 46 47 47 46 44 40 38 35 34 33 33 33 35 36 37 36 36 37 38 39 39 39 38 37 36 35 35 34 34 35 36 38 39 39 39 39 39 39 40 40 39 38 38 39 41 42 40 37 35 33 24 315 251 241 234 230 226 222 218 216 214 213 214
36 38 39 41 43 45 46 46 46 44 42 39 36 33 32 31 32 34 37 39 38 37 37 37 38 39 40 40 40 39 38 37 36 35 35 35 36 37 38 38 38 38 38 37 38 37 36 34 34 35 36 38 38 38 38 41 43 41 36 27 12 327 268 244 232 224 219 216 213
37 38 40 42 44 45 45 44 44 43 41 38 36 33 30 30 32 35 38 40 39 38 38 38 38 39 39 40 41 41 40 39 38 37 37 36 37 37 37 37 36 36 36 36 36 35 33 32 32 32 32 33 33 34 35 38 41 42 41 40 39 35 28 16 350 290 248 231 222
37 39 40 43 44 44 43 42 41 40 39 37 35 32 31 31 33 36 38 39 39 38 38 38 39 39 39 40 41 42 42 41 39 38 38 38 38 37 37 36 35 35 35 34 34 34 32 31 31 30 30 29 30 31 32 35 36 37 37 37 36 35 34 33 31 28 20 358 289
35 37 40 42 43 43 42 41 39 38 36 34 32 31 31 32 33 36 37 38 38 38 38 37 38 38 39 39 40 41 42 42 41 40 39 38 38 38 37 37 35 35 34 33 33 33 32 31 30 29 28 28 28 29 30 32 33 34 34 33 31 30 29 30 32 34 34 33 29
33 35 38 40 41 42 41 40 38 36 34 32 32 32 33 33 34 35 36 35 35 36 36 36 36 37 37 38 39 40 41 41 41 40 39 38 38 38 38 37 36 34 33 33 33 32 32 31 30 29 28 28 27 27 27 29 30 32 32 32 31 30 28 27 28 29 31 33 33
32 34 35 37 38 39 39 39 37 35 33 32 33 34 35 36 36 36 36 34 33 33 34 36 36 36 36 37 37 38 38 39 39 39 39 38 38 38 38 37 36 35 34 33 32 31 31 30 30 30 29 28 27 26 26 27 28 29 29 30 30 29 28 27 27 27 27 28 28
31 33 34 35 35 36 35 35 34 33 32 32 33 34 36 38 39 39 39 37 34 32 32 33 34 35 35 36 36 37 37 37 38 38 38 38 38 38 37 37 37 35 34 33 31 30 30 29 29 29 29 29 28 27 26 27 27 28 28 28 28 27 27 26 26 26 26 26 26
30 32 33 33 32 32 32 32 31 31 30 30 31 32 35 37 40 41 41 39 37 34 32 30 30 32 33 35 37 38 38 38 38 37 37 38 38 37 36 36 35 35 34 32 31 29 28 28 28 28 29 29 28 27 27 27 28 28 27 27 26 25 24 24 24 25 25 26 25
29 30 30 30 30 29 29 30 30 29 28 27 27 28 30 34 37 39 39 38 38 36 34 31 29 30 32 35 37 37 37 37 37 37 37 38 37 36 35 34 34 33 32 31 29 28 27 26 26 26 27 28 28 27 26 27 28 29 28 27 25 24 22 21 21 21 22 23 24
26 27 28 28 28 28 27 28 28 28 26 24 23 24 26 29 33 35 35 35 36 36 35 32 31 31 33 35 36 36 36 36 36 36 37 37 37 37 35 33 33 32 31 29 28 26 25 24 25 25 25 26 26 26 25 25 27 28 28 27 25 24 22 20 19 18 18 18 20
23 24 25 26 27 27 26 26 26 26 24 24 24 24 25 27 29 31 32 33 34 35 35 34 32 31 33 34 35 35 36 36 37 36 36 36 36 36 35 33 31 30 29 27 25 24 22 22 23 23 22 23 23 24 24 24 24 25 25 25 24 24 23 22 20 18 16 15 15
21 22 23 25 26 26 26 25 25 24 23 23 24 24 25 26 27 29 31 32 33 33 34 33 32 31 31 33 34 35 35 36 36 36 35 34 34 34 34 32 30 29 28 25 23 21 21 20 20 20 20 21 21 22 23 22 22 22 22 21 21 21 21 21 20 19 17 15 14
20 21 22 23 24 24 24 24 24 23 23 22 23 23 24 25 27 29 30 31 32 32 32 31 30 29 29 31 32 33 34 33 33 34 34 33 32 32 32 31 29 28 26 24 22 21 21 20 19 18 19 19 20 21 22 22 21 21 20 19 18 17 18 18 18 17 16 16 15
20 21 21 22 22 23 23 23 23 22 22 22 23 23 24 24 26 28 29 30 30 30 30 29 28 27 27 28 30 32 32 32 31 31 30 30 30 31 31 30 28 26 23 21 20 21 22 22 20 19 18 18 19 19 20 20 20 20 20 19 17 15 14 14 14 14 14 13 13
19 19 20 20 20 21 21 21 21 21 22 22 23 23 24 24 26 27 28 28 27 27 27 26 26 25 25 25 27 29 30 30 30 30 29 28 28 29 29 29 27 24 21 19 19 20 21 21 21 20 19 19 19 19 19 18 17 18 18 18 16 15 12 11 10 10 10 10 10
17 17 17 18 19 19 19 19 20 20 20 21 22 22 23 24 26 26 27 26 25 25 25 24 24 23 23 24 24 26 27 28 28 28 28 28 27 27 28 28 26 23 19 18 18 19 19 19 20 20 20 19 20 19 17 15 15 16 17 16 15 14 12 9 8 7 6 6 6
14 14 14 15 16 16 16 17 17 17 18 19 19 20 22 23 24 24 25 24 24 24 24 23 22 22 23 23 23 24 24 25 26 26 27 27 27 27 27 26 25 22 19 18 18 18 18 18 18 18 19 19 19 18 17 15 14 14 15 14 13 11 10 8 7 5 3 2 2
12 12 12 13 13 14 14 14 14 14 14 15 16 18 19 20 21 21 21 22 22 22 21 20 21 22 23 23 23 23 24 24 24 25 25 26 26 26 26 26 24 21 19 18 18 18 18 17 17 17 17 17 17 16 15 14 13 12 12 11 10 8 6 5 4 3 1 0 360
9 9 10 11 11 12 12 12 11 11 11 12 13 14 15 16 17 17 17 18 18 19 19 19 20 21 22 22 22 23 23 23 23 23 23 23 24 24 24 25 24 21 19 17 17 18 17 17 16 15 15 15 15 15 13 11 10 10 9 8 7 5 4 3 2 1 359 358 358
8 7 8 9 9 10 9 9 8 8 9 9 10 11 13 13 13 13 13 12 13 14 15 17 18 19 19 20 21 21 21 22 22 22 21 21 22 22 23 24 24 22 19 17 17 17 17 16 15 14 14 13 13 12 10 8 8 8 7 5 4 3 2 1 360 359 358 357 356
6 5 6 7 7 7 7 6 6 6 7 8 8 9 11 11 11 10 9 9 9 9 11 13 14 14 15 16 18 19 20 20 20 20 19 18 19 21 22 23 23 21 18 17 17 17 17 16 15 14 12 11 11 10 8 6 5 5 4 3 2 1 1 360 358 357 356 356 356
5 4 4 5 5 5 5 5 5 5 6 7 8 8 9 9 8 8 7 7 7 7 9 10 10 10 10 10 13 15 16 18 18 18 17 17 17 20 22 23 22 20 18 17 17 17 16 16 15 13 11 10 8 7 4 3 3 3 2 1 0 360 359 358 356 355 354 354 355
3 3 3 3 3 3 3 3 4 5 6 6 7 7 7 7 7 6 6 5 5 5 7 8 8 7 6 6 9 11 12 14 15 16 16 15 15 17 20 22 21 19 17 17 17 17 16 15 14 13 11 8 6 4 2 0 1 1 0 359 358 358 357 356 355 354 353 353 353
1 0 0 0 0 1 1 2 3 4 5 6 5 5 5 5 5 4 3 1 2 3 4 5 6 5 5 4 7 9 10 10 12 12 13 13 13 14 17 20 20 19 17 17 17 16 15 15 13 12 10 8 5 2 0 359 359 359 359 357 357 356 356 355 353 352 351 351 351
360 358 357 357 359 360 0 1 2 3 4 4 3 3 2 2 2 1 0 359 360 0 1 3 4 4 3 3 5 7 9 9 9 9 10 11 10 11 14 17 18 18 18 17 16 15 14 13 12 11 9 7 4 2 0 360 359 359 358 356 355 354 354 352 351 349 348 348 347
359 358 356 356 358 359 0 1 2 3 3 2 1 0 360 359 359 359 359 358 358 358 359 1 2 3 2 2 5 7 9 9 9 9 9 10 10 10 11 15 17 18 18 16 15 14 13 12 11 10 9 7 4 2 1 0 359 358 356 355 353 352 351 350 348 346 345 344 343
358 358 357 356 357 359 0 1 2 2 1 0 359 358 358 357 357 357 357 358 357 356 356 359 1 1 2 3 5 9 11 12 12 11 10 11 11 11 12 14 16 17 17 15 14 13 12 12 11 11 10 9 5 3 2 1 359 357 355 353 350 349 348 346 344 342 340 339 338
358 358 357 357 357 359 1 3 3 2 0 358 357 357 357 358 358 357 357 357 357 357 357 359 1 2 3 5 8 11 13 14 14 14 13 12 12 13 13 14 14 14 13 13 12 12 11 11 11 12 12 12 8 5 3 2 358 355 353 350 347 345 344 343 341 338 336 335 334
360 360 359 359 359 1 3 3 3 3 1 359 359 359 359 358 358 359 359 360 1 1 1 1 2 4 7 9 11 11 11 12 13 13 12 12 11 12 12 12 11 10 9 9 9 9 10 10 11 12 13 13 10 7 5 1 357 354 352 349 345 342 340 339 337 334 332 331 331
2 2 1 1 2 3 5 5 4 4 3 3 2 2 1 0 1 2 2 3 4 5 5 4 4 5 8 10 11 10 9 9 9 9 9 9 9 9 9 8 8 6 5 5 6 7 8 8 9 10 11 11 9 7 5 2 357 354 351 348 346 343 340 337 334 331 328 327 326